VK2TRB Weather Reports


Display with metric or nautical units.
time (UTC)temp
F
wind
direction
speed
MPH
gust
MPH
rain 1hr
in
rain 24hr
in
rain mn
in
humidity
%
barometer
mb
20260510141934 49 98 0.0 1.0 0.00 0.00 0.00 91 1026.8
20260510140434 50 98 0.0 1.0 0.00 0.00 0.00 91 1026.9
20260510134935 51 98 0.0 1.0 0.00 0.00 0.00 91 1027.0
20260510133435 51 98 0.0 1.0 0.00 0.00 0.00 92 1026.7
20260510131934 51 98 0.0 1.0 0.00 0.00 0.00 91 1026.9
20260510130434 50 98 0.0 1.0 0.00 0.00 0.00 92 1026.8
20260510124935 50 34 0.0 1.0 0.00 0.00 0.00 92 1026.9
20260510123435 48 86 1.0 1.0 0.00 0.00 0.00 91 1026.6
20260510121936 48 86 0.0 1.0 0.00 0.00 0.00 90 1026.6
20260510120435 48 86 0.0 1.0 0.00 0.00 0.00 90 1026.5
20260510114935 48 86 0.0 1.0 0.00 0.00 0.00 90 1026.4
20260510113435 49 86 0.0 1.0 0.00 0.00 0.00 89 1026.3
20260510111935 49 86 0.0 1.0 0.00 0.00 0.00 89 1026.3
20260510110435 49 86 0.0 1.0 0.00 0.00 0.00 88 1026.3
20260510104934 50 86 0.0 1.0 0.00 0.00 0.00 88 1026.2
20260510103436 50 86 0.0 1.0 0.00 0.00 0.00 88 1026.2
20260510101936 50 86 0.0 1.0 0.00 0.00 0.00 87 1026.2
20260510100435 51 86 0.0 1.0 0.00 0.00 0.00 86 1026.1
20260510094935 51 86 0.0 1.0 0.00 0.00 0.00 86 1026.0
20260510093436 52 86 0.0 1.0 0.00 0.00 0.00 84 1025.9
20260510091935 53 86 0.0 1.0 0.00 0.00 0.00 83 1025.7
20260510090437 54 86 0.0 1.0 0.00 0.00 0.00 82 1025.6
20260510084935 55 86 0.0 1.0 0.00 0.00 0.00 79 1025.4
20260510083437 57 86 0.0 1.0 0.00 0.00 0.00 76 1025.2
20260510081935 59 86 0.0 1.0 0.00 0.00 0.00 74 1025.1
20260510080436 60 85 0.0 1.0 0.00 0.00 0.00 70 1024.9
20260510074935 62 86 0.0 1.0 0.00 0.00 0.00 66 1024.7
20260510073435 65 86 0.0 1.0 0.00 0.00 0.00 61 1024.4
20260510071936 67 86 0.0 1.0 0.00 0.00 0.00 58 1024.3
20260510070436 69 86 0.0 1.0 0.00 0.00 0.00 54 1024.1
20260510064936 70 86 0.0 1.0 0.00 0.00 0.00 53 1024.0
20260510063435 70 86 0.0 1.0 0.00 0.00 0.00 51 1023.8
20260510061936 70 86 1.0 1.0 0.00 0.00 0.00 52 1023.8
20260510060435 70 85 1.0 1.0 0.00 0.00 0.00 52 1023.8
20260510054936 70 91 2.0 1.0 0.00 0.00 0.00 51 1023.8
20260510053437 70 91 1.0 1.0 0.00 0.00 0.00 52 1023.8
20260510051936 70 123 2.0 1.0 0.00 0.00 0.00 53 1023.8
20260510050436 70 107 4.0 1.0 0.00 0.00 0.00 53 1023.8
20260510044935 70 71 1.0 1.0 0.00 0.00 0.00 52 1023.7
20260510043436 70 48 1.0 1.0 0.00 0.00 0.00 52 1023.8
20260510041935 70 97 4.0 1.0 0.00 0.00 0.00 52 1023.8
20260510040437 70 5 2.0 1.0 0.00 0.00 0.00 54 1023.9
20260510034937 69 46 2.0 1.0 0.00 0.00 0.00 56 1024.1
20260510033436 68 105 0.0 1.0 0.00 0.00 0.00 55 1024.1
20260510030437 68 34 2.0 1.0 0.00 0.00 0.00 57 1024.4
20260510024937 67 38 1.0 1.0 0.00 0.00 0.00 58 1024.6
20260510023437 66 101 4.0 1.0 0.00 0.00 0.00 59 1024.8
20260510021936 65 113 4.0 1.0 0.00 0.00 0.00 62 1025.0
20260510020438 65 71 6.0 1.0 0.00 0.00 0.00 63 1025.3
20260510014937 64 98 2.0 1.0 0.00 0.00 0.00 64 1025.5
20260510013437 64 108 2.0 1.0 0.00 0.00 0.00 67 1025.8
20260510011936 64 76 2.0 1.0 0.00 0.00 0.00 68 1026.0
20260510010437 63 52 2.0 1.0 0.00 0.00 0.00 71 1026.1
20260510004938 62 72 2.0 1.0 0.00 0.00 0.00 75 1026.2
20260510003437 61 94 2.0 1.0 0.00 0.00 0.00 75 1026.2
20260510001938 60 5 1.0 1.0 0.00 0.00 0.00 77 1026.2
20260510000437 58 327 0.0 1.0 0.00 0.00 0.00 80 1026.2
20260509234938 57 355 0.0 1.0 0.00 0.00 0.00 83 1026.1
20260509233437 55 54 0.0 1.0 0.00 0.00 0.00 86 1026.1
20260509231937 52 57 0.0 1.0 0.00 0.00 0.00 91 1026.0
20260509230437 51 62 0.0 1.0 0.00 0.00 0.00 92 1026.0
20260509224938 50 125 0.0 1.0 0.00 0.00 0.00 95 1026.1
20260509223438 49 125 0.0 1.0 0.00 0.00 0.00 96 1026.1
20260509221937 48 125 0.0 1.0 0.00 0.00 0.00 97 1025.9
20260509220437 45 125 0.0 1.0 0.00 0.00 0.00 96 1025.8
20260509214938 42 125 0.0 1.0 0.00 0.00 0.00 96 1025.7
20260509213438 40 125 0.0 1.0 0.00 0.00 0.00 95 1025.6
20260509211938 39 125 0.0 1.0 0.00 0.00 0.00 94 1025.5
20260509210438 39 227 0.0 1.0 0.00 0.00 0.00 94 1025.2
20260509204937 39 227 0.0 1.0 0.00 0.00 0.00 94 1025.0
20260509203437 39 227 0.0 1.0 0.00 0.00 0.00 94 1024.8
20260509201937 40 227 0.0 1.0 0.00 0.00 0.00 94 1024.6
20260509200439 40 227 0.0 1.0 0.00 0.00 0.00 94 1024.5
20260509194938 40 227 0.0 1.0 0.00 0.00 0.00 94 1024.3
20260509193438 40 227 0.0 1.0 0.00 0.00 0.00 94 1024.2
20260509191937 40 227 0.0 1.0 0.00 0.00 0.00 94 1024.1
20260509190439 40 227 0.0 1.0 0.00 0.00 0.00 94 1023.9
20260509184939 40 227 0.0 1.0 0.00 0.00 0.00 94 1023.7
20260509183438 40 227 0.0 1.0 0.00 0.00 0.00 94 1023.5
20260509181939 40 227 0.0 1.0 0.00 0.00 0.00 94 1023.4
20260509180438 40 227 0.0 1.0 0.00 0.00 0.00 94 1023.4
20260509174938 41 227 0.0 1.0 0.00 0.00 0.00 94 1023.2
20260509173437 41 227 0.0 1.0 0.00 0.00 0.00 93 1023.2
20260509171939 41 227 0.0 1.0 0.00 0.00 0.00 93 1023.2
20260509170439 41 227 0.0 1.0 0.00 0.00 0.00 93 1023.2
20260509164938 41 227 0.0 1.0 0.00 0.00 0.00 93 1023.2
20260509163438 42 227 0.0 1.0 0.00 0.00 0.00 93 1023.3
20260509161939 42 227 0.0 1.0 0.00 0.00 0.00 93 1023.2
20260509160439 42 227 0.0 1.0 0.00 0.00 0.00 93 1023.1
20260509154939 42 227 0.0 1.0 0.00 0.00 0.00 93 1023.1
20260509153438 42 227 0.0 1.0 0.00 0.00 0.00 93 1023.1
20260509151938 42 227 0.0 1.0 0.00 0.00 0.00 93 1023.1
20260509150439 42 227 0.0 1.0 0.00 0.00 0.00 93 1023.2
20260509144939 43 227 0.0 4.0 0.00 0.00 0.00 92 1023.2
20260509143438 43 227 0.0 4.0 0.00 0.00 0.00 93 1023.3